CAPE
1164 1189 1072 807 434 217 3 2 19 0 0 0 0 0 0 0 54 78 6 22 0 1 0 0 0 10 14 4 5 6 7 5 8
1197 1074 765 354 152 97 5 0 64 0 0 0 0 0 0 0 28 16 62 25 1 14 10 1 5 6 1 5 6 2 2 3 4
1040 819 564 314 128 108 105 48 63 0 0 0 0 0 0 0 15 28 205 60 6 0 0 3 3 5 6 7 3 2 2 4 5
1141 844 545 357 256 133 140 121 127 33 0 0 0 14 0 0 6 5 35 76 86 1 0 0 0 2 2 0 1 0 7 0 0
1222 1034 861 707 616 475 240 123 127 134 105 4 0 0 0 0 6 0 10 6 42 23 0 0 0 3 2 0 0 0 0 0 0
311 556 567 823 940 829 417 191 241 245 111 110 0 0 0 0 5 1 10 0 0 158 14 5 4 4 3 1 1 0 0 0 0
672 528 548 607 720 851 836 605 373 68 0 0 0 0 0 2 6 1 0 0 0 57 9 9 7 7 7 3 4 3 3 1 0
1147 1500 1201 933 464 632 592 554 392 100 4 0 2 0 0 0 0 1 0 0 0 34 45 13 9 8 7 6 3 3 3 3 2
983 993 1192 1280 1150 990 782 761 531 370 220 59 7 0 0 0 0 0 0 0 0 6 37 232 53 20 12 12 10 6 3 3 2
255 899 1103 1123 1366 1146 1170 922 721 553 447 306 149 47 0 0 0 0 0 0 0 0 37 275 259 21 7 11 11 10 10 9 6
0 0 312 847 1053 980 1082 1079 936 772 822 522 582 532 165 0 0 0 0 0 0 0 19 144 294 418 249 128 72 50 13 14 17
0 0 0 0 384 796 827 927 883 752 676 562 746 600 175 425 48 0 0 0 0 0 2 58 179 297 451 600 425 527 447 278 163
0 0 0 0 0 59 362 413 620 670 660 666 739 673 669 549 257 195 18 1 1 0 0 41 117 369 371 489 504 692 771 564 350
0 0 0 0 0 0 0 93 109 369 567 598 665 635 648 541 391 276 151 77 99 23 3 0 0 30 250 401 515 587 585 697 592
0 0 0 0 0 0 0 0 0 240 291 308 562 622 552 470 587 390 249 248 332 234 104 6 9 1 6 29 224 570 789 608 627
0 0 0 0 0 0 0 0 0 0 24 290 167 456 398 566 472 720 561 251 192 117 143 3 5 13 0 19 111 387 792 863 807
0 0 0 0 0 0 0 0 0 0 0 0 176 101 142 322 397 488 337 160 201 158 82 18 90 0 3 36 16 54 308 315 805
0 0 0 0 0 0 0 0 0 0 0 0 42 95 73 92 411 420 529 745 266 394 161 48 30 1 51 10 9 6 13 119 232
0 0 0 0 0 0 19 7 1 0 0 0 0 24 114 94 92 285 411 558 333 404 525 303 88 69 95 122 69 62 71 63 58
0 0 0 0 5 0 57 68 43 2 2 12 5 1 1 95 112 73 66 123 189 246 345 365 267 142 58 45 61 33 24 64 45
CIN
-3 -1 -1 -2 -1 -37 -80 0 -174 0 0 0 0 0 0 -1 -75 -207 -5 -5 0 -2 -1 0 0 0 0 0 0 0 0 0 0
-1 -2 -5 -13 -56 -84 -64 0 -126 0 0 0 0 0 0 0 -2 -1 -205 -3 0 -1 -3 -1 -1 -1 0 -1 -1 0 0 -1 0
-3 -5 -6 -17 -77 -77 -71 -102 -96 0 0 0 0 0 0 0 -1 -4 -87 -74 -3 0 0 -1 0 0 0 -1 -1 0 -1 0 -1
-1 -4 -10 -26 -39 -69 -49 -55 -56 -114 0 0 0 -71 0 0 -1 0 -8 -135 -89 -1 0 0 0 0 0 0 0 0 -2 0 0
-1 -2 -2 -2 0 -3 -25 -56 -49 -47 -68 -13 0 0 0 0 -1 0 -4 -28 -35 0 0 0 0 0 0 0 0 0 0 0 0
-33 -9 -24 -10 0 0 -5 -50 -21 -15 -66 -55 0 0 0 0 -1 -1 -43 0 0 -42 -1 0 0 0 0 0 0 0 0 0 0
-6 -3 -17 -20 -4 -1 0 0 -6 -113 0 0 0 0 0 -1 0 0 0 0 0 -36 0 -3 0 0 0 0 0 0 0 0 0
0 -1 -1 -1 -16 0 -4 -1 -7 -49 0 0 -3 0 0 0 0 -8 0 0 0 -24 -64 -1 -1 0 0 0 0 0 0 0 0
0 0 0 0 -1 0 -1 -5 -5 -13 -12 -38 -1 0 0 0 0 0 0 0 0 -63 -35 -11 -55 -25 0 0 0 0 0 0 0
-68 0 0 0 0 0 0 -4 -3 -4 -2 -5 -13 -1 0 0 0 0 0 0 0 0 -38 0 -5 -16 0 0 0 0 0 0 0
0 0 -11 0 0 0 0 0 0 -1 -1 -2 0 0 -7 0 0 0 0 0 0 0 -64 -7 0 0 -3 -16 -54 -44 -1 -1 0
0 0 0 0 -1 0 0 0 0 0 0 -6 0 -1 -14 0 -16 0 0 0 0 0 -113 -31 -1 0 0 0 0 0 -6 -6 -17
0 0 0 0 0 -7 -8 0 0 0 0 -3 0 -1 -6 -8 -5 -1 -36 -7 -22 0 0 -45 -14 0 0 0 0 0 -1 -3 -6
0 0 0 0 0 0 0 -1 -15 0 0 0 0 -2 -1 -1 -23 -13 -2 -14 -20 -25 -22 0 0 -26 -8 0 0 0 -1 -4 -5
0 0 0 0 0 0 0 0 0 -10 -3 -2 0 0 -1 -8 -2 -7 -3 0 0 -1 -5 -5 -8 -3 -109 -42 -6 0 0 -1 -1
0 0 0 0 0 0 0 0 0 0 0 -4 -25 0 -1 0 -1 0 0 -7 -12 -10 -13 -24 -95 -5 -1 -132 -51 -13 0 0 0
0 0 0 0 0 0 0 0 0 0 0 0 0 0 -17 0 -3 -1 -22 -59 -37 -46 -42 -11 -7 -19 -34 -88 -81 -81 -16 -5 0
0 0 0 0 0 0 0 0 0 0 0 0 0 0 0 -1 -15 -11 -4 0 -9 -5 -35 -29 -30 -19 -33 -19 -56 -55 -85 -48 -13
0 0 0 0 0 0 0 0 -1 -1 0 0 0 -3 -2 0 -1 -9 -4 0 -4 -1 0 -13 -4 -6 -21 -17 -18 -20 -43 -31 -31
0 0 0 0 0 0 -1 -1 0 0 0 0 0 0 0 -1 -1 0 -2 -3 -6 -4 -1 -2 -6 -33 -60 -80 -43 -18 -30 -37 -39
Wind_Speed
12 19 22 22 21 19 nan nan nan nan nan nan nan nan nan nan nan nan nan nan nan nan nan nan nan nan nan nan nan nan nan nan nan
19 21 20 20 21 nan nan nan nan nan nan nan nan nan nan nan nan nan nan nan nan nan nan nan nan nan nan nan nan nan nan nan nan
19 21 20 18 18 18 20 nan nan nan nan nan nan nan nan nan nan nan 25 nan nan nan nan nan nan nan nan nan nan nan nan nan nan
20 22 21 20 19 18 17 18 19 nan nan nan nan nan nan nan nan nan nan nan nan nan nan nan nan nan nan nan nan nan nan nan nan
21 23 22 22 21 20 19 17 16 17 18 nan nan nan nan nan nan nan nan nan nan nan nan nan nan nan nan nan nan nan nan nan nan
24 23 29 27 24 23 21 20 18 17 16 17 nan nan nan nan nan nan nan nan nan 27 nan nan nan nan nan nan nan nan nan nan nan
25 29 34 31 28 26 24 23 23 nan nan nan nan nan nan nan nan nan nan nan nan nan nan nan nan nan nan nan nan nan nan nan nan
30 31 31 29 31 30 30 30 28 24 nan nan nan nan nan nan nan nan nan nan nan nan nan nan nan nan nan nan nan nan nan nan nan
27 30 30 33 35 32 32 35 33 31 27 nan nan nan nan nan nan nan nan nan nan nan nan 21 nan nan nan nan nan nan nan nan nan
33 33 34 33 34 34 36 37 34 36 36 31 30 nan nan nan nan nan nan nan nan nan nan 18 21 nan nan nan nan nan nan nan nan
nan nan 40 39 38 37 37 37 38 38 37 36 34 35 33 nan nan nan nan nan nan nan nan 19 19 19 18 17 nan nan nan nan nan
nan nan nan nan 44 42 40 40 40 40 41 38 37 38 38 37 nan nan nan nan nan nan nan nan 19 18 16 17 17 18 18 18 18
nan nan nan nan nan nan 49 47 44 45 44 44 42 43 41 40 42 40 nan nan nan nan nan nan 20 19 18 16 16 17 17 17 16
nan nan nan nan nan nan nan nan 52 49 48 47 46 44 44 45 45 44 42 nan nan nan nan nan nan nan 20 15 14 13 17 17 17
nan nan nan nan nan nan nan nan nan 53 53 52 50 49 47 45 46 48 48 44 47 46 47 nan nan nan nan nan 11 9 12 13 15
nan nan nan nan nan nan nan nan nan nan nan 57 55 51 49 46 44 46 46 45 45 48 45 nan nan nan nan nan 15 13 9 10 12
nan nan nan nan nan nan nan nan nan nan nan nan 61 59 57 52 48 45 45 44 50 48 nan nan nan nan nan nan nan nan 20 10 11
nan nan nan nan nan nan nan nan nan nan nan nan nan nan nan nan 57 47 50 50 52 51 46 nan nan nan nan nan nan nan nan 18 12
nan nan nan nan nan nan nan nan nan nan nan nan nan nan 57 nan nan 57 53 52 51 48 48 46 nan nan nan 39 nan nan nan nan nan
nan nan nan nan nan nan nan nan nan nan nan nan nan nan nan nan 58 nan nan 53 52 48 49 46 46 44 nan nan nan nan nan nan nan
Wind_Direction
314 312 294 286 286 292 nan nan nan nan nan nan nan nan nan nan nan nan nan nan nan nan nan nan nan nan nan nan nan nan nan nan nan
302 308 306 300 293 nan nan nan nan nan nan nan nan nan nan nan nan nan nan nan nan nan nan nan nan nan nan nan nan nan nan nan nan
302 302 309 313 312 307 295 nan nan nan nan nan nan nan nan nan nan nan 282 nan nan nan nan nan nan nan nan nan nan nan nan nan nan
301 304 306 310 313 313 311 307 294 nan nan nan nan nan nan nan nan nan nan nan nan nan nan nan nan nan nan nan nan nan nan nan nan
295 298 302 304 305 306 307 308 305 299 287 nan nan nan nan nan nan nan nan nan nan nan nan nan nan nan nan nan nan nan nan nan nan
300 297 289 298 297 299 302 301 298 295 293 288 nan nan nan nan nan nan nan nan nan 294 nan nan nan nan nan nan nan nan nan nan nan
269 270 288 290 290 293 296 296 292 nan nan nan nan nan nan nan nan nan nan nan nan nan nan nan nan nan nan nan nan nan nan nan nan
278 276 280 286 292 283 292 292 285 288 nan nan nan nan nan nan nan nan nan nan nan nan nan nan nan nan nan nan nan nan nan nan nan
290 286 284 281 280 285 282 280 284 284 279 nan nan nan nan nan nan nan nan nan nan nan nan 293 nan nan nan nan nan nan nan nan nan
291 290 289 288 286 284 282 280 276 280 281 277 272 nan nan nan nan nan nan nan nan nan nan 285 290 nan nan nan nan nan nan nan nan
nan nan 289 287 287 286 284 283 282 277 277 276 274 274 273 nan nan nan nan nan nan nan nan 303 288 287 294 295 nan nan nan nan nan
nan nan nan nan 284 281 281 283 280 281 281 276 273 273 276 274 nan nan nan nan nan nan nan nan 295 282 275 284 289 294 299 300 295
nan nan nan nan nan nan 276 274 277 279 278 279 278 271 271 270 272 274 nan nan nan nan nan nan 291 286 282 274 269 277 287 292 291
nan nan nan nan nan nan nan nan 271 268 272 273 272 273 273 271 269 270 275 nan nan nan nan nan nan nan 283 280 283 283 278 276 280
nan nan nan nan nan nan nan nan nan 266 264 263 267 269 268 269 272 272 271 272 274 270 266 nan nan nan nan nan 285 300 280 276 275
nan nan nan nan nan nan nan nan nan nan nan 260 260 260 265 267 266 271 275 276 277 278 279 nan nan nan nan nan 286 303 292 280 276
nan nan nan nan nan nan nan nan nan nan nan nan 256 256 259 263 267 269 271 275 273 275 nan nan nan nan nan nan nan nan 283 272 281
nan nan nan nan nan nan nan nan nan nan nan nan nan nan nan nan 264 268 268 270 271 275 278 nan nan nan nan nan nan nan nan 295 279
nan nan nan nan nan nan nan nan nan nan nan nan nan nan 250 nan nan 260 263 267 271 276 276 276 nan nan nan 284 nan nan nan nan nan
nan nan nan nan nan nan nan nan nan nan nan nan nan nan nan nan 256 nan nan 259 265 268 273 276 278 279 nan nan nan nan nan nan nan